Regional Weather Roundup
Issued by NWS

Home | Current Version | Previous Version | Graphics & Text | Print | Product List | Glossary On
Versions: 1 2 3 4 5 6 7 8 9 10 11 12 13 14 15 16 17 18 19 20 21 22 23 24 25 26 27 28 29 30 31 32 33 34 35 36 37 38 39 40 41 42 43 44 45 46 47 48 49 50
000
ASUS43 KLMK 290602
RWRKY
KENTUCKY REGIONAL WEATHER ROUNDUP
NATIONAL WEATHER SERVICE LOUISVILLE KY
200 AM EDT FRI AUG 29 2014

NOTE "FAIR" INDICATES FEW OR NO CLOUDS BELOW 12,000 FEET
WITH NO SIGNIFICANT WEATHER AND/OR OBSTRUCTIONS TO VISIBILITY.

KYZ001>023-026-027-061>063-070>075-290700-
WESTERN AND SOUTH CENTRAL KENTUCKY

CITY           SKY/WX    TMP DP  RH WIND       PRES   REMARKS
PADUCAH        FAIR      74  71  91 CALM      29.98S FOG
HENDERSON      FAIR      72  68  88 CALM      30.01S
OWENSBORO      FAIR      74  73  96 CALM      30.01S FOG
HOPKINSVILLE   FAIR      74  74  99 E3        30.00F
BOWLING GREEN  FAIR      72  71  97 CALM      30.02S FOG
GLASGOW        FAIR      72  72 100 CALM      30.03S FOG
$$

KYZ024-025-028>034-038-045-046-053-290700-
NORTH CENTRAL KENTUCKY

CITY           SKY/WX    TMP DP  RH WIND       PRES   REMARKS
LOUISVILLE/SDF FAIR      78  68  71 E7        30.03F
LOUISVILLE/LOU FAIR      77  68  73 E3        30.04F
FORT KNOX      FAIR      75  69  82 NE6       30.02F
$$

KYZ035>037-039>044-047>052-055>060-089>105-290700-
NORTHEAST KENTUCKY

CITY           SKY/WX    TMP DP  RH WIND       PRES   REMARKS
LEXINGTON      FAIR      75  66  73 E8        30.08S
COVINGTON      MOCLDY    71  60  68 E9        30.08F
FRANKFORT      FAIR      72  66  81 E6        30.06S
$$

KYZ054-064>069-076>088-106>120-290700-
SOUTHEAST KENTUCKY

CITY           SKY/WX    TMP DP  RH WIND       PRES   REMARKS
JACKSON        FAIR      70  63  78 VRB3      30.10S
LONDON         FAIR      73  67  81 N3        30.08S
SOMERSET       FAIR      72  66  83 NE5       30.07S
MIDDLESBORO    FAIR      69  68  97 CALM      30.09S
MONTICELLO     FAIR      71  70  97 CALM      30.07S FOG
$$



USA.gov is the U.S. government's official web portal to all federal, state and local government web resources and services.